DW7628 Weather Reports


Display with metric or nautical units.
time (UTC)temp
F
wind
direction
speed
MPH
gust
MPH
rain 1hr
in
rain 24hr
in
rain mn
in
humidity
%
barometer
mb
20260504050304 50 239 0.0 0.0 0.00 0.00 0.00 79 1018.4
20260504045805 50 239 0.0 0.0 0.00 0.00 0.00 80 1018.3
20260504045305 50 239 0.0 0.0 0.00 0.00 0.00 80 1018.3
20260504044804 50 239 0.0 0.0 0.00 0.00 0.00 80 1018.3
20260504044305 50 239 0.0 0.0 0.00 0.00 0.00 80 1018.2
20260504043804 50 239 0.0 0.0 0.00 0.00 0.00 80 1018.1
20260504042305 50 239 0.0 0.0 0.00 0.00 0.00 82 1018.0
20260504041804 50 239 0.0 0.0 0.00 0.00 0.00 82 1018.0
20260504040804 50 239 0.0 0.0 0.00 0.00 0.00 82 1017.8
20260504035805 50 239 0.0 0.0 0.00 0.00 0.00 84 1017.7
20260504034304 50 239 0.0 0.0 0.00 0.00 0.00 85 1017.7
20260504032804 51 232 0.0 0.0 0.00 0.00 0.00 87 1017.6
20260504032304 51 232 0.0 0.0 0.00 0.00 0.00 87 1017.6
20260504031804 51 232 0.0 0.0 0.00 0.00 0.00 87 1017.6
20260504031304 51 236 0.0 0.0 0.00 0.00 0.00 86 1017.6
20260504030804 51 236 0.0 0.0 0.00 0.00 0.00 85 1017.6
20260504030304 51 236 0.0 0.0 0.00 0.00 0.00 85 1017.6
20260504025804 51 236 0.0 0.0 0.00 0.00 0.00 85 1017.6
20260504025304 51 236 0.0 0.0 0.00 0.00 0.00 85 1017.7
20260504024804 51 236 0.0 0.0 0.00 0.00 0.00 86 1017.7
20260504022804 51 236 0.0 0.0 0.00 0.00 0.00 86 1018.0
20260504022305 51 236 0.0 0.0 0.00 0.00 0.00 85 1018.0
20260504020303 51 236 0.0 0.0 0.00 0.00 0.00 83 1018.1
20260504015305 51 236 0.0 0.0 0.00 0.00 0.00 82 1018.0
20260504014804 52 236 0.0 0.0 0.00 0.00 0.00 82 1018.0
20260504014304 52 236 0.0 0.0 0.00 0.00 0.00 82 1018.0
20260504013804 52 236 0.0 0.0 0.00 0.00 0.00 82 1018.0
20260504013304 52 236 0.0 0.0 0.00 0.00 0.00 82 1017.9
20260504012803 52 236 0.0 0.0 0.00 0.00 0.00 83 1018.0
20260504012304 52 236 0.0 0.0 0.00 0.00 0.00 83 1018.0
20260504011803 52 236 0.0 0.0 0.00 0.00 0.00 83 1018.1
20260504011304 52 236 0.0 0.0 0.00 0.00 0.00 83 1018.0
20260504010804 52 236 0.0 0.0 0.00 0.00 0.00 83 1018.1
20260504010304 52 236 0.0 0.0 0.00 0.00 0.00 83 1018.0
20260504005804 52 236 0.0 0.0 0.00 0.00 0.00 83 1018.0
20260504005305 52 236 0.0 0.0 0.00 0.00 0.00 84 1018.0
20260504004804 52 236 0.0 0.0 0.00 0.00 0.00 84 1018.0
20260504004303 52 236 0.0 0.0 0.00 0.00 0.00 85 1017.9
20260504003804 52 236 0.0 0.0 0.00 0.00 0.00 85 1018.0
20260504003303 52 236 0.0 0.0 0.00 0.00 0.00 85 1018.0
20260504002806 52 236 0.0 0.0 0.00 0.00 0.00 86 1018.0
20260504001806 52 236 0.0 0.0 0.00 0.00 0.00 85 1018.0
20260504001306 52 236 0.0 0.0 0.00 0.00 0.00 84 1018.1
20260504000806 52 236 0.0 0.0 0.00 0.00 0.00 84 1018.1
20260504000306 52 235 0.0 0.0 0.00 0.00 0.00 84 1018.2
20260503235806 52 235 0.0 0.0 0.00 0.00 0.00 83 1018.3
20260503235306 52 235 0.0 0.0 0.00 0.00 0.00 83 1018.3
20260503234806 52 235 0.0 0.0 0.00 0.00 0.00 83 1018.3
20260503234306 52 235 0.0 0.0 0.00 0.00 0.00 84 1018.3
20260503233806 52 235 0.0 0.0 0.00 0.00 0.00 83 1018.4
20260503233306 52 235 0.0 0.0 0.00 0.00 0.00 83 1018.3
20260503232806 52 235 0.0 0.0 0.00 0.00 0.00 83 1018.4
20260503232306 52 235 0.0 0.0 0.00 0.00 0.00 82 1018.4
20260503231806 52 235 0.0 0.0 0.00 0.00 0.00 82 1018.4
20260503231306 52 235 0.0 0.0 0.00 0.00 0.00 82 1018.4
20260503230806 52 233 0.0 0.0 0.00 0.00 0.00 82 1018.5
20260503230306 52 230 0.0 0.0 0.00 0.00 0.00 81 1018.5
20260503225806 52 239 0.0 0.0 0.00 0.00 0.00 80 1018.5
20260503225306 53 233 0.0 0.0 0.00 0.00 0.00 79 1018.6
20260503224806 53 225 0.0 0.0 0.00 0.00 0.00 78 1018.5
20260503224306 53 51 0.0 0.0 0.00 0.00 0.00 76 1018.6
20260503223306 53 317 0.0 0.0 0.00 0.00 0.00 75 1018.7
20260503222806 53 263 0.0 0.0 0.00 0.00 0.00 76 1018.7
20260503222306 53 281 0.0 0.0 0.00 0.00 0.00 76 1018.6
20260503221806 53 281 0.0 0.0 0.00 0.00 0.00 77 1018.7
20260503221306 53 278 0.0 0.0 0.00 0.00 0.00 79 1018.7
20260503220827 53 278 0.0 0.0 0.00 0.00 0.00 77 1018.9
20260503220306 53 278 0.0 0.0 0.00 0.00 0.00 77 1018.9
20260503215806 53 278 0.0 0.0 0.00 0.00 0.00 77 1018.8
20260503215306 53 278 0.0 0.0 0.00 0.00 0.00 78 1018.6
20260503214806 54 278 0.0 0.0 0.00 0.00 0.00 77 1018.6
20260503213806 54 278 0.0 0.0 0.00 0.00 0.00 78 1018.7
20260503213306 54 278 0.0 0.0 0.00 0.00 0.00 78 1018.7
20260503212805 54 39 0.0 0.0 0.00 0.00 0.00 77 1018.6
20260503212306 54 39 0.0 0.0 0.00 0.00 0.00 77 1018.6
20260503211306 54 58 0.0 0.0 0.00 0.00 0.00 78 1018.5
20260503210806 54 288 0.0 0.0 0.00 0.00 0.00 78 1018.6
20260503210306 54 41 0.0 0.0 0.00 0.00 0.00 77 1018.6
20260503205307 54 41 0.0 0.0 0.00 0.00 0.00 77 1018.6
20260503204307 54 40 0.0 0.0 0.00 0.00 0.00 76 1018.5
20260503203305 55 40 0.0 0.0 0.00 0.00 0.00 76 1018.4
20260503202806 55 40 0.0 0.0 0.00 0.00 0.00 76 1018.3
20260503202305 55 40 0.0 0.0 0.00 0.00 0.00 76 1018.3
20260503201806 55 39 0.0 0.0 0.00 0.00 0.00 76 1018.3
20260503201305 55 39 0.0 0.0 0.00 0.00 0.00 76 1018.3
20260503200805 55 38 0.0 0.0 0.00 0.00 0.00 76 1018.2
20260503200306 55 35 0.0 0.0 0.00 0.00 0.00 76 1018.2
20260503195805 55 36 0.0 0.0 0.00 0.00 0.00 75 1018.3
20260503195306 55 87 0.0 0.0 0.00 0.00 0.00 76 1018.2
20260503194805 55 87 0.0 0.0 0.00 0.00 0.00 76 1018.2
20260503194306 55 82 0.0 0.0 0.00 0.00 0.00 76 1018.2
20260503193805 55 20 0.0 0.0 0.00 0.00 0.00 75 1018.1
20260503193306 55 44 0.0 0.0 0.00 0.00 0.00 75 1018.0
20260503192807 55 24 0.0 0.0 0.00 0.00 0.00 75 1018.0
20260503192306 55 42 0.0 0.0 0.00 0.00 0.00 75 1018.0
20260503190306 56 64 0.0 0.0 0.00 0.00 0.00 74 1017.9
20260503184806 56 158 0.0 0.0 0.00 0.00 0.00 73 1017.9
20260503183306 57 238 0.0 0.0 0.00 0.00 0.00 73 1017.7
20260503182306 57 223 0.0 0.0 0.00 0.00 0.00 72 1017.7
20260503180305 58 230 0.0 0.0 0.00 0.00 0.00 71 1017.6
20260503175806 58 231 0.0 0.0 0.00 0.00 0.00 71 1017.5
20260503175305 58 237 0.0 0.0 0.00 0.00 0.00 71 1017.5
20260503174805 58 223 0.0 0.0 0.00 0.00 0.00 70 1017.4
20260503174306 58 262 0.0 0.0 0.00 0.00 0.00 70 1017.4
20260503173805 59 166 0.0 0.0 0.00 0.00 0.00 70 1017.4
20260503173305 59 124 0.0 0.0 0.00 0.00 0.00 70 1017.3
20260503172305 59 228 0.0 0.0 0.00 0.00 0.00 70 1017.2
20260503171806 59 297 0.0 0.0 0.00 0.00 0.00 70 1017.2
20260503171306 59 247 0.0 0.0 0.00 0.00 0.00 70 1017.2
20260503170306 60 241 0.0 0.0 0.00 0.00 0.00 69 1017.1
20260503150805 68 176 0.0 0.0 0.00 0.00 0.00 52 1016.9
20260503150306 68 12 0.0 0.0 0.00 0.00 0.00 51 1016.9
20260503140306 69 192 0.0 0.0 0.00 0.00 0.00 38 1017.5
20260503131305 70 18 0.0 0.0 0.00 0.00 0.00 32 1017.9
20260503130806 71 243 0.0 0.0 0.00 0.00 0.00 32 1017.9
20260503130305 70 73 0.0 0.0 0.00 0.00 0.00 33 1018.0
20260503110806 65 48 0.0 0.0 0.00 0.00 0.00 33 1018.9
20260503110305 66 38 0.0 0.0 0.00 0.00 0.00 31 1019.0
20260503081305 59 113 0.0 0.0 0.00 0.00 0.00 62 1019.7
20260503080805 59 69 0.0 0.0 0.00 0.00 0.00 64 1019.7
20260503080304 59 38 0.0 0.0 0.00 0.00 0.00 65 1019.7
20260503072805 57 225 0.0 0.0 0.00 0.00 0.00 70 1019.8
20260503072305 57 148 0.0 0.0 0.00 0.00 0.00 71 1019.8
20260503071805 56 84 0.0 0.0 0.00 0.00 0.00 71 1019.9
20260503071304 56 68 0.0 0.0 0.00 0.00 0.00 71 1019.9
20260503070804 56 324 0.0 0.0 0.00 0.00 0.00 72 1019.9
20260503070305 56 39 0.0 0.0 0.00 0.00 0.00 71 1019.8
20260503060305 52 47 0.0 0.0 0.00 0.00 0.00 79 1019.9
20260503054804 51 6 0.0 0.0 0.00 0.00 0.00 81 1020.0
20260503054304 50 61 0.0 0.0 0.00 0.00 0.00 82 1019.9
20260503053805 50 66 0.0 0.0 0.00 0.00 0.00 82 1019.9